Temp
65 66 65 65 66 66 68 72 68 70 72 74 74 74 74 73 73 70 73 72 70 68 66 65 66 69 73 71 73 74 74 74 73 73 74 74 73 73 74 74 74 74 74 75 75 75 75 75 75 75 75 75 75 69 70 70 69 68 68 68 69 68
65 65 65 66 67 67 66 68 65 65 67 69 71 70 68 69 69 65 69 67 66 68 65 64 66 71 69 70 70 73 73 73 72 72 73 72 72 72 72 72 73 73 73 73 73 71 70 71 73 73 74 75 74 70 70 70 69 68 68 67 68 68
65 65 65 65 66 66 66 65 65 66 66 68 68 67 65 67 65 65 66 66 66 65 66 65 68 70 70 70 70 71 72 72 72 71 72 71 70 70 71 70 71 71 72 71 69 67 68 68 68 71 71 70 70 70 69 69 68 67 67 67 67 69
66 65 64 65 66 66 65 65 65 65 65 65 65 66 65 65 65 65 66 66 65 66 66 64 69 70 69 66 66 69 70 70 70 70 71 68 68 69 69 68 69 69 68 67 66 66 66 65 66 67 68 68 67 68 68 68 67 67 67 68 68 70
65 65 65 64 65 65 65 65 65 65 65 65 65 65 65 65 65 65 65 66 66 66 65 65 65 65 65 65 65 66 66 66 66 66 69 65 66 66 66 65 66 66 65 65 65 65 64 64 65 66 66 66 67 67 67 67 66 66 66 66 67 70
66 65 65 64 64 66 66 64 65 66 66 65 65 65 65 65 65 65 65 67 66 65 65 65 65 65 65 64 65 65 65 65 65 65 67 65 65 65 65 65 65 65 65 65 65 65 65 65 64 64 66 66 66 66 66 66 66 66 66 66 67 69
66 65 65 65 65 65 64 64 65 67 66 65 64 65 65 65 65 65 65 66 65 64 64 64 64 64 64 64 64 65 65 65 65 65 66 65 65 65 65 65 65 65 65 65 66 66 65 65 64 65 65 65 66 66 66 66 66 66 66 67 68 70
66 66 64 65 65 64 64 65 66 66 65 68 65 64 64 64 65 65 66 65 66 63 63 63 63 63 64 64 64 64 64 65 65 65 65 65 65 65 65 65 65 65 66 66 65 66 65 65 65 65 65 65 66 65 66 65 66 66 66 67 67 69
65 65 64 65 64 64 64 65 65 64 64 68 64 63 63 64 63 64 64 65 65 63 63 62 62 63 63 63 63 64 64 64 64 65 65 65 65 64 64 64 64 65 65 65 65 65 66 66 65 65 65 65 65 65 65 65 65 65 65 66 66 67
65 65 64 65 64 64 64 64 64 63 64 65 63 63 64 63 63 63 63 63 64 63 61 61 61 62 62 62 63 63 63 63 64 64 64 63 64 64 63 64 64 65 65 64 65 65 66 65 65 66 64 64 64 65 65 65 65 64 65 65 67 67
65 66 65 64 64 63 64 64 64 63 63 63 63 63 63 62 62 62 62 62 62 63 63 60 60 60 61 61 62 62 62 62 62 63 63 63 64 64 63 63 63 64 64 64 64 65 65 65 65 65 64 64 64 64 65 65 65 64 65 66 67 67
64 65 65 64 64 63 63 63 63 63 63 63 64 62 62 61 62 61 62 61 61 61 63 60 59 60 61 60 61 61 61 61 61 62 63 63 63 63 63 64 64 64 63 63 63 64 65 64 64 65 64 64 64 64 64 65 64 65 65 66 66 67
63 63 63 63 62 63 62 63 62 62 62 63 61 62 61 60 60 60 60 60 60 62 61 59 58 59 61 59 60 60 60 60 60 61 61 62 62 62 62 62 62 63 63 63 62 62 64 63 63 63 64 64 63 63 65 64 64 64 64 66 67 67
63 61 63 62 63 62 61 62 63 60 62 61 60 60 60 59 60 60 60 60 60 62 61 60 59 58 59 59 59 59 59 60 60 61 60 61 60 61 60 60 61 61 62 61 60 61 62 61 62 63 63 63 63 63 63 64 64 64 64 65 66 66
63 60 61 60 60 61 61 60 60 60 60 59 60 59 58 59 59 59 59 59 59 61 61 60 60 58 58 59 58 58 59 59 60 60 60 60 60 60 59 59 60 59 60 60 60 61 61 60 60 61 62 62 61 63 63 64 64 64 63 64 65 65
60 59 59 60 59 59 59 59 59 63 59 58 59 59 58 58 58 59 59 59 59 61 61 59 60 59 58 59 58 58 58 59 60 59 59 59 59 59 59 59 59 59 57 58 59 59 60 60 60 60 61 61 61 62 62 63 63 63 64 64 65 65
58 58 58 58 58 58 58 59 58 59 59 58 58 57 57 57 58 58 58 59 58 60 60 59 59 59 58 58 58 58 59 59 59 58 58 57 58 59 58 58 57 59 58 57 58 58 59 59 59 59 60 60 60 61 60 61 63 63 64 63 64 65
58 58 57 57 58 57 57 58 58 57 60 58 57 57 57 58 57 57 57 58 59 59 60 59 59 59 57 60 58 58 58 58 58 58 57 57 57 58 58 57 56 57 58 57 57 57 57 58 59 59 59 60 60 58 59 60 62 64 64 63 64 64
57 56 56 56 58 57 57 57 57 57 57 58 57 58 57 57 56 57 57 58 59 58 59 59 59 58 58 59 57 57 57 57 58 57 56 56 56 57 57 56 55 55 57 57 57 57 57 57 58 58 58 59 59 58 58 60 62 63 63 63 64 64
55 55 56 56 56 56 56 56 55 56 57 56 56 58 57 56 56 57 58 58 58 57 58 59 59 58 57 59 57 57 56 57 57 56 55 54 54 55 54 53 53 54 54 55 57 57 57 57 57 56 57 58 57 57 58 60 61 61 62 63 63 63
55 55 55 54 54 54 53 53 53 53 51 53 56 57 56 55 56 56 57 57 58 57 57 57 59 58 57 58 57 56 56 56 56 56 55 54 54 55 55 54 53 53 53 52 53 56 56 57 55 55 56 55 55 58 59 61 60 61 61 61 62 62
54 54 54 54 53 53 53 52 51 51 50 52 54 54 54 55 56 57 57 57 57 57 57 57 58 59 58 57 55 55 55 55 55 55 56 55 55 55 53 52 52 51 53 51 51 54 55 55 53 51 50 51 53 55 58 60 59 61 61 62 62 61
53 53 53 57 54 53 53 54 52 52 52 52 55 55 54 55 56 56 56 56 57 56 56 57 57 58 57 56 55 54 54 54 54 55 53 52 52 51 51 51 50 50 50 52 52 55 54 54 49 52 53 52 49 49 54 56 57 58 59 59 61 61
53 53 53 55 58 54 56 55 54 54 54 53 54 57 54 55 55 56 55 56 56 56 56 56 57 57 58 55 54 54 53 53 52 53 53 51 50 50 50 50 50 50 50 47 50 51 55 54 53 50 46 48 48 49 47 50 52 55 57 58 60 61
52 52 52 54 53 54 54 52 53 53 54 53 54 53 53 53 54 55 55 54 54 55 56 56 56 56 57 56 54 53 52 52 52 52 53 51 50 49 50 50 50 49 49 47 47 49 52 54 54 54 49 47 48 47 48 49 51 52 57 56 59 60
53 52 52 53 53 54 52 50 50 51 50 50 50 50 49 49 50 51 51 53 55 55 55 55 56 56 55 56 54 53 52 52 51 51 53 51 50 49 49 49 50 49 48 50 48 48 48 53 54 54 54 52 50 46 46 49 49 47 56 57 57 59
53 52 53 53 52 55 51 51 51 51 50 49 48 49 50 51 50 52 52 52 53 54 55 54 55 55 54 55 54 53 52 51 51 50 53 50 49 48 49 49 51 49 49 50 50 47 47 49 52 54 54 54 53 53 52 48 47 49 47 54 57 57
52 54 52 53 52 53 52 50 50 50 53 50 49 49 50 51 52 54 51 52 52 53 54 55 54 54 54 54 55 53 52 51 50 50 53 50 49 49 50 50 51 51 50 51 50 48 48 49 47 49 53 52 52 54 53 52 52 49 48 46 50 57
51 51 51 53 53 51 54 51 49 49 50 51 52 51 52 52 52 52 51 52 52 52 53 54 54 54 53 53 54 53 51 50 50 50 52 50 50 50 50 50 50 50 50 51 51 51 49 48 49 48 49 50 51 51 51 52 53 52 49 48 49 52
50 50 51 51 52 51 51 52 50 49 49 49 50 50 50 50 50 50 50 50 51 51 51 52 53 53 53 53 52 52 51 50 49 50 51 50 50 50 51 50 50 50 51 50 51 50 50 50 50 50 50 49 48 50 50 51 51 51 52 52 48 51
50 50 51 51 51 50 51 50 50 49 49 49 49 49 48 49 49 50 49 49 50 50 51 51 52 52 52 52 51 51 50 50 50 51 51 50 50 50 50 50 50 50 50 50 49 50 50 51 51 50 51 50 49 50 49 48 49 50 50 50 50 51
50 49 50 51 51 50 50 50 50 49 49 50 49 49 48 48 49 48 49 48 49 50 50 51 51 50 50 50 50 49 50 50 50 50 50 51 51 51 51 50 50 50 50 50 51 51 50 50 51 52 53 52 51 51 51 51 52 52 51 51 51 51
49 49 49 50 50 50 50 49 49 49 49 52 50 49 48 48 49 48 48 48 48 48 50 50 49 49 49 49 49 48 49 49 49 50 51 51 51 51 50 50 50 50 50 50 50 50 49 50 52 52 52 53 53 53 52 53 53 52 53 53 52 50
48 48 49 50 50 50 49 49 49 49 49 50 50 49 48 49 48 48 49 48 48 48 49 49 49 48 49 49 49 49 50 50 51 51 52 51 51 50 50 49 50 50 50 51 51 51 52 53 53 53 54 53 52 52 53 53 53 53 53 53 52 52
48 49 49 49 49 49 49 49 49 49 49 50 50 49 49 50 48 48 49 48 49 49 49 49 49 49 49 48 48 50 50 50 51 51 51 50 50 50 49 49 50 50 51 52 52 52 53 53 53 53 53 53 53 52 52 52 52 54 55 54 53 53
47 48 49 50 48 48 49 49 49 48 48 50 51 49 49 50 49 49 49 49 49 49 49 50 50 50 48 48 48 49 50 51 51 50 50 50 49 49 49 49 49 51 51 53 52 52 52 52 52 53 53 53 53 52 53 52 53 54 55 55 55 55
48 48 49 49 48 48 48 48 48 48 48 48 48 47 47 48 48 49 49 49 49 49 50 50 49 50 48 48 48 50 49 50 50 49 49 49 49 48 48 49 50 50 51 52 52 52 52 51 52 51 52 52 51 52 52 53 53 53 55 56 56 55
MSLP
1017.00 1016.80 1016.64 1016.52 1016.40 1016.24 1016.08 1015.84 1015.76 1015.60 1015.44 1015.32 1015.24 1015.16 1015.16 1015.16 1015.08 1015.04 1014.92 1014.84 1014.76 1014.72 1014.68 1014.60 1014.40 1014.20 1014.04 1013.88 1013.68 1013.36 1013.16 1013.04 1012.88 1012.72 1012.52 1012.36 1012.16 1011.96 1011.84 1011.68 1011.56 1011.44 1011.32 1011.20 1011.04 1010.88 1010.68 1010.52 1010.36 1010.16 1010.04 1009.96 1010.12 1010.28 1010.16 1010.16 1010.24 1010.24 1010.16 1010.16 1010.12 1010.04
1017.20 1016.96 1016.84 1016.68 1016.56 1016.44 1016.24 1016.04 1015.96 1015.84 1015.68 1015.60 1015.48 1015.44 1015.44 1015.44 1015.40 1015.36 1015.16 1015.08 1015.04 1014.92 1014.84 1014.76 1014.52 1014.28 1014.20 1014.04 1013.80 1013.56 1013.36 1013.16 1013.04 1012.88 1012.64 1012.48 1012.28 1012.12 1011.96 1011.80 1011.68 1011.52 1011.32 1011.20 1011.08 1010.96 1010.76 1010.48 1010.28 1010.12 1010.00 1009.88 1009.88 1009.92 1009.80 1009.84 1009.88 1009.92 1009.96 1009.96 1009.88 1009.76
1017.40 1017.16 1016.96 1016.84 1016.76 1016.60 1016.44 1016.32 1016.16 1016.08 1015.96 1015.84 1015.76 1015.72 1015.72 1015.68 1015.64 1015.52 1015.40 1015.28 1015.16 1015.04 1014.92 1014.80 1014.60 1014.40 1014.28 1014.08 1013.88 1013.68 1013.48 1013.32 1013.16 1012.96 1012.76 1012.68 1012.48 1012.32 1012.08 1011.96 1011.80 1011.60 1011.40 1011.28 1011.16 1011.04 1010.84 1010.60 1010.32 1010.04 1009.92 1009.88 1009.88 1009.84 1009.76 1009.72 1009.68 1009.72 1009.72 1009.68 1009.60 1009.44
1017.60 1017.36 1017.20 1017.08 1016.92 1016.76 1016.68 1016.52 1016.40 1016.32 1016.24 1016.16 1016.12 1016.08 1015.96 1015.88 1015.76 1015.64 1015.52 1015.36 1015.28 1015.12 1015.00 1014.88 1014.68 1014.48 1014.32 1014.24 1014.08 1013.84 1013.64 1013.48 1013.32 1013.12 1012.92 1012.84 1012.64 1012.44 1012.28 1012.04 1011.84 1011.68 1011.56 1011.44 1011.32 1011.12 1010.92 1010.64 1010.40 1010.12 1009.96 1009.84 1009.76 1009.72 1009.72 1009.68 1009.64 1009.56 1009.52 1009.44 1009.32 1009.12
1017.68 1017.48 1017.40 1017.32 1017.20 1017.04 1016.88 1016.68 1016.64 1016.60 1016.52 1016.40 1016.36 1016.28 1016.16 1016.04 1015.96 1015.84 1015.68 1015.52 1015.40 1015.24 1015.16 1015.00 1014.88 1014.72 1014.60 1014.48 1014.28 1014.12 1013.92 1013.76 1013.64 1013.48 1013.16 1013.12 1012.92 1012.72 1012.48 1012.28 1012.04 1011.80 1011.72 1011.56 1011.40 1011.16 1010.96 1010.68 1010.36 1010.16 1009.96 1009.80 1009.68 1009.60 1009.56 1009.52 1009.48 1009.48 1009.36 1009.28 1009.12 1008.92
1017.80 1017.72 1017.68 1017.60 1017.52 1017.28 1017.00 1017.04 1016.96 1016.84 1016.72 1016.64 1016.64 1016.52 1016.36 1016.28 1016.16 1016.04 1015.88 1015.68 1015.56 1015.48 1015.36 1015.24 1015.08 1014.96 1014.80 1014.64 1014.48 1014.36 1014.20 1014.04 1013.84 1013.68 1013.44 1013.36 1013.12 1012.92 1012.68 1012.48 1012.28 1012.04 1011.76 1011.56 1011.36 1011.16 1010.88 1010.72 1010.48 1010.16 1009.92 1009.76 1009.64 1009.52 1009.44 1009.36 1009.32 1009.20 1009.08 1009.00 1008.88 1008.76
1018.04 1017.92 1017.84 1017.72 1017.60 1017.40 1017.40 1017.36 1017.20 1017.04 1016.96 1016.96 1016.84 1016.72 1016.64 1016.52 1016.40 1016.24 1016.08 1015.88 1015.84 1015.80 1015.64 1015.48 1015.32 1015.16 1015.04 1014.84 1014.72 1014.56 1014.40 1014.20 1014.08 1013.88 1013.64 1013.52 1013.36 1013.08 1012.88 1012.64 1012.40 1012.16 1011.84 1011.56 1011.32 1011.08 1010.80 1010.56 1010.40 1010.20 1009.92 1009.72 1009.56 1009.44 1009.32 1009.24 1009.16 1009.04 1008.88 1008.80 1008.68 1008.60
1018.24 1018.12 1018.08 1017.92 1017.80 1017.68 1017.64 1017.52 1017.40 1017.24 1017.16 1017.12 1017.04 1017.04 1016.96 1016.84 1016.68 1016.48 1016.28 1016.16 1016.00 1016.00 1015.92 1015.76 1015.60 1015.40 1015.28 1015.08 1014.96 1014.80 1014.56 1014.40 1014.20 1014.04 1013.80 1013.60 1013.44 1013.20 1012.96 1012.72 1012.48 1012.20 1011.92 1011.64 1011.44 1011.12 1010.84 1010.52 1010.28 1010.12 1009.92 1009.68 1009.48 1009.32 1009.20 1009.12 1008.96 1008.88 1008.76 1008.68 1008.60 1008.52
1018.48 1018.40 1018.28 1018.12 1018.08 1018.00 1017.84 1017.68 1017.60 1017.52 1017.48 1017.36 1017.32 1017.28 1017.20 1017.00 1016.88 1016.72 1016.48 1016.36 1016.24 1016.24 1016.12 1016.00 1015.84 1015.68 1015.48 1015.32 1015.16 1014.96 1014.80 1014.60 1014.40 1014.16 1013.92 1013.72 1013.52 1013.36 1013.12 1012.84 1012.60 1012.32 1012.04 1011.80 1011.52 1011.24 1010.88 1010.60 1010.36 1010.12 1009.96 1009.68 1009.48 1009.28 1009.16 1009.00 1008.88 1008.76 1008.68 1008.56 1008.48 1008.48
1018.80 1018.64 1018.52 1018.32 1018.28 1018.16 1018.08 1017.96 1017.92 1017.84 1017.76 1017.64 1017.60 1017.52 1017.32 1017.20 1017.12 1016.96 1016.76 1016.64 1016.52 1016.40 1016.40 1016.28 1016.08 1015.84 1015.72 1015.56 1015.36 1015.16 1014.96 1014.76 1014.56 1014.32 1014.12 1013.96 1013.68 1013.52 1013.32 1013.00 1012.72 1012.44 1012.16 1011.92 1011.64 1011.36 1011.04 1010.76 1010.48 1010.20 1009.96 1009.76 1009.48 1009.32 1009.08 1008.92 1008.76 1008.64 1008.56 1008.44 1008.36 1008.32
1019.00 1018.80 1018.64 1018.60 1018.48 1018.44 1018.32 1018.28 1018.24 1018.12 1017.96 1017.92 1017.84 1017.64 1017.52 1017.44 1017.32 1017.20 1017.08 1016.92 1016.76 1016.60 1016.52 1016.40 1016.24 1016.08 1015.88 1015.72 1015.52 1015.32 1015.12 1014.92 1014.68 1014.48 1014.28 1014.12 1013.84 1013.68 1013.44 1013.24 1012.96 1012.68 1012.40 1012.12 1011.80 1011.48 1011.20 1010.88 1010.60 1010.28 1010.00 1009.80 1009.52 1009.24 1009.04 1008.88 1008.68 1008.56 1008.44 1008.32 1008.20 1008.20
1019.28 1019.04 1018.92 1018.88 1018.76 1018.72 1018.68 1018.64 1018.52 1018.36 1018.28 1018.20 1018.00 1017.92 1017.80 1017.68 1017.60 1017.44 1017.28 1017.12 1016.96 1016.80 1016.64 1016.52 1016.40 1016.24 1016.04 1015.88 1015.68 1015.48 1015.28 1015.08 1014.92 1014.68 1014.48 1014.28 1014.04 1013.80 1013.60 1013.36 1013.04 1012.76 1012.52 1012.24 1011.96 1011.60 1011.28 1011.08 1010.76 1010.40 1010.16 1009.84 1009.48 1009.24 1009.00 1008.84 1008.64 1008.44 1008.32 1008.16 1008.04 1008.04
1019.56 1019.36 1019.28 1019.28 1019.20 1019.08 1019.00 1018.92 1018.84 1018.72 1018.56 1018.40 1018.28 1018.12 1018.04 1018.00 1017.84 1017.68 1017.48 1017.32 1017.12 1016.92 1016.80 1016.72 1016.56 1016.40 1016.16 1016.00 1015.80 1015.64 1015.40 1015.24 1015.08 1014.84 1014.64 1014.40 1014.20 1013.92 1013.68 1013.44 1013.16 1012.84 1012.56 1012.28 1012.04 1011.72 1011.36 1011.12 1010.88 1010.52 1010.16 1009.88 1009.56 1009.24 1008.92 1008.76 1008.56 1008.36 1008.20 1008.00 1007.84 1007.80
1019.88 1019.80 1019.68 1019.60 1019.48 1019.40 1019.36 1019.20 1019.08 1018.96 1018.80 1018.64 1018.52 1018.40 1018.32 1018.20 1018.04 1017.88 1017.68 1017.52 1017.32 1017.08 1016.96 1016.84 1016.72 1016.48 1016.28 1016.12 1015.96 1015.76 1015.64 1015.44 1015.24 1014.96 1014.76 1014.52 1014.36 1014.12 1013.92 1013.68 1013.44 1013.08 1012.76 1012.60 1012.32 1012.00 1011.64 1011.32 1010.96 1010.56 1010.24 1009.92 1009.64 1009.32 1009.00 1008.72 1008.52 1008.32 1008.08 1007.88 1007.72 1007.72
1020.28 1020.16 1020.04 1019.96 1019.88 1019.76 1019.60 1019.48 1019.32 1019.16 1019.04 1018.92 1018.76 1018.64 1018.56 1018.40 1018.24 1018.12 1017.88 1017.72 1017.56 1017.32 1017.16 1017.00 1016.80 1016.68 1016.44 1016.28 1016.12 1015.96 1015.76 1015.60 1015.36 1015.12 1014.92 1014.72 1014.52 1014.28 1014.08 1013.80 1013.60 1013.36 1013.04 1012.76 1012.44 1012.08 1011.84 1011.60 1011.24 1010.76 1010.32 1009.96 1009.68 1009.28 1009.00 1008.72 1008.44 1008.28 1008.08 1007.80 1007.64 1007.56
1020.56 1020.48 1020.40 1020.28 1020.16 1020.00 1019.84 1019.68 1019.52 1019.32 1019.24 1019.12 1019.00 1018.88 1018.80 1018.68 1018.52 1018.28 1018.16 1018.00 1017.80 1017.52 1017.32 1017.16 1016.96 1016.80 1016.60 1016.40 1016.28 1016.12 1015.96 1015.76 1015.52 1015.32 1015.12 1014.88 1014.60 1014.44 1014.24 1013.96 1013.64 1013.48 1013.32 1012.92 1012.64 1012.24 1011.92 1011.68 1011.32 1010.96 1010.40 1009.96 1009.68 1009.32 1009.00 1008.72 1008.44 1008.20 1008.00 1007.84 1007.60 1007.48
1020.84 1020.80 1020.64 1020.44 1020.28 1020.12 1019.96 1019.80 1019.68 1019.56 1019.44 1019.32 1019.24 1019.16 1019.00 1018.84 1018.64 1018.52 1018.40 1018.20 1018.04 1017.80 1017.56 1017.36 1017.12 1016.92 1016.80 1016.60 1016.48 1016.32 1016.12 1015.92 1015.68 1015.52 1015.32 1015.08 1014.84 1014.64 1014.44 1014.20 1013.76 1013.44 1013.36 1013.16 1012.80 1012.48 1012.04 1011.72 1011.40 1010.96 1010.48 1010.00 1009.60 1009.36 1009.04 1008.68 1008.40 1008.08 1007.88 1007.80 1007.64 1007.48
1021.12 1020.96 1020.88 1020.72 1020.56 1020.40 1020.20 1020.00 1019.84 1019.76 1019.60 1019.52 1019.48 1019.36 1019.20 1019.00 1018.96 1018.84 1018.64 1018.48 1018.28 1018.04 1017.76 1017.56 1017.28 1017.08 1016.92 1016.72 1016.64 1016.52 1016.32 1016.08 1015.88 1015.68 1015.48 1015.28 1015.04 1014.80 1014.56 1014.40 1014.16 1013.64 1013.32 1013.20 1012.88 1012.60 1012.24 1011.84 1011.48 1011.04 1010.52 1010.00 1009.60 1009.36 1009.00 1008.64 1008.24 1007.88 1007.72 1007.68 1007.60 1007.52
1021.32 1021.16 1021.04 1020.92 1020.68 1020.48 1020.36 1020.16 1020.00 1019.92 1019.76 1019.72 1019.64 1019.52 1019.44 1019.28 1019.24 1019.04 1018.88 1018.72 1018.48 1018.24 1017.96 1017.72 1017.48 1017.24 1017.12 1016.92 1016.84 1016.64 1016.48 1016.28 1016.04 1015.88 1015.72 1015.52 1015.24 1015.00 1014.76 1014.56 1014.36 1013.96 1013.44 1013.20 1013.00 1012.72 1012.40 1012.00 1011.48 1011.08 1010.64 1010.00 1009.60 1009.32 1008.88 1008.44 1008.08 1007.84 1007.68 1007.56 1007.52 1007.44
1021.56 1021.44 1021.28 1021.16 1021.00 1020.84 1020.64 1020.52 1020.40 1020.24 1020.04 1020.12 1020.04 1019.84 1019.64 1019.56 1019.40 1019.24 1019.12 1018.92 1018.68 1018.44 1018.20 1017.92 1017.68 1017.48 1017.36 1017.16 1017.08 1016.92 1016.72 1016.44 1016.24 1016.08 1015.92 1015.76 1015.56 1015.28 1015.08 1014.80 1014.44 1014.12 1013.72 1013.24 1012.88 1012.72 1012.36 1012.04 1011.52 1011.04 1010.56 1010.04 1009.56 1009.24 1008.80 1008.20 1007.96 1007.84 1007.72 1007.60 1007.56 1007.48
1021.84 1021.72 1021.60 1021.48 1021.36 1021.32 1021.28 1021.00 1020.72 1020.76 1020.64 1020.48 1020.40 1020.12 1019.92 1019.84 1019.64 1019.48 1019.32 1019.12 1018.88 1018.68 1018.44 1018.20 1017.92 1017.76 1017.64 1017.48 1017.32 1017.16 1016.92 1016.72 1016.52 1016.28 1016.08 1016.04 1015.84 1015.52 1015.28 1015.16 1014.88 1014.44 1014.08 1013.80 1013.12 1012.68 1012.44 1012.20 1011.68 1011.00 1010.52 1010.04 1009.28 1008.92 1008.72 1008.08 1007.96 1007.96 1007.88 1007.80 1007.64 1007.56
1022.08 1021.96 1021.84 1021.76 1021.76 1021.52 1021.60 1021.56 1021.44 1021.16 1021.12 1020.64 1020.60 1020.48 1020.32 1020.08 1019.88 1019.60 1019.52 1019.36 1019.12 1018.92 1018.68 1018.48 1018.24 1017.96 1017.84 1017.72 1017.60 1017.40 1017.20 1017.04 1016.80 1016.48 1016.20 1016.12 1015.84 1015.64 1015.40 1015.16 1014.92 1014.48 1014.12 1014.08 1013.68 1013.12 1012.72 1012.40 1011.76 1011.72 1011.28 1010.44 1009.76 1008.96 1008.52 1008.04 1007.96 1007.88 1007.92 1007.72 1007.56 1007.52
1022.36 1022.24 1022.16 1021.92 1021.88 1021.88 1021.68 1021.56 1021.52 1021.40 1021.20 1020.84 1020.64 1020.64 1020.60 1020.40 1020.12 1019.92 1019.72 1019.56 1019.32 1019.12 1018.92 1018.68 1018.48 1018.20 1018.12 1018.08 1018.00 1017.80 1017.60 1017.36 1017.08 1016.72 1016.36 1016.12 1015.88 1015.64 1015.48 1015.32 1015.12 1015.00 1014.48 1014.00 1013.64 1013.16 1013.04 1013.00 1012.84 1012.04 1011.40 1010.88 1010.32 1010.16 1008.44 1008.24 1008.08 1008.04 1008.00 1007.68 1007.52 1007.56
1022.52 1022.44 1022.40 1022.20 1022.04 1022.00 1021.76 1021.68 1021.52 1021.40 1021.20 1021.08 1020.96 1020.80 1020.68 1020.48 1020.32 1020.00 1019.88 1019.72 1019.44 1019.36 1019.20 1019.04 1018.84 1018.64 1018.40 1018.36 1018.28 1018.08 1017.80 1017.48 1017.20 1016.88 1016.60 1016.44 1016.12 1015.84 1015.56 1015.36 1015.16 1014.88 1014.80 1014.40 1013.84 1013.28 1013.08 1012.92 1012.84 1012.60 1011.92 1011.68 1011.16 1010.60 1010.08 1009.00 1009.12 1008.28 1008.00 1007.84 1007.68 1007.48
1022.68 1022.60 1022.60 1022.44 1022.32 1022.20 1022.00 1021.88 1021.76 1021.56 1021.44 1021.20 1020.96 1020.92 1020.76 1020.64 1020.52 1020.36 1020.24 1020.08 1019.96 1019.72 1019.52 1019.32 1019.12 1018.92 1018.68 1018.52 1018.40 1018.16 1017.92 1017.56 1017.28 1017.00 1016.60 1016.48 1016.32 1016.16 1015.92 1015.68 1015.36 1015.04 1014.84 1014.64 1014.04 1013.72 1013.08 1012.76 1012.68 1012.64 1012.56 1011.92 1011.00 1010.68 1010.44 1010.24 1009.92 1008.52 1007.96 1007.84 1007.60 1007.56
1022.72 1022.72 1022.72 1022.64 1022.52 1022.40 1022.36 1022.32 1022.04 1021.76 1021.56 1021.40 1021.24 1021.24 1021.52 1021.60 1021.24 1021.00 1020.84 1020.44 1020.08 1019.92 1019.72 1019.52 1019.32 1019.16 1018.96 1018.64 1018.48 1018.28 1018.04 1017.72 1017.44 1017.12 1016.72 1016.68 1016.64 1016.24 1015.92 1015.68 1015.40 1015.28 1015.04 1014.64 1014.32 1013.88 1013.32 1012.68 1012.48 1012.32 1012.04 1012.08 1012.04 1011.88 1011.44 1010.56 1010.68 1009.24 1007.92 1008.08 1007.92 1007.76
1022.88 1022.84 1022.84 1022.80 1022.76 1022.56 1022.52 1022.40 1022.28 1022.12 1022.20 1022.36 1022.36 1022.04 1021.92 1021.64 1021.48 1021.12 1020.88 1020.60 1020.44 1020.12 1019.92 1019.76 1019.56 1019.36 1019.16 1018.84 1018.60 1018.40 1018.20 1017.96 1017.72 1017.44 1016.96 1017.00 1016.84 1016.64 1016.36 1016.08 1015.72 1015.48 1015.20 1014.68 1014.32 1014.00 1013.48 1012.88 1012.40 1012.00 1011.92 1011.76 1011.52 1011.24 1011.20 1011.32 1010.68 1010.24 1009.40 1008.00 1007.92 1007.84
1023.08 1023.04 1023.08 1022.92 1022.88 1022.76 1022.68 1022.68 1022.48 1022.52 1022.44 1022.60 1022.52 1022.40 1022.08 1021.80 1021.48 1021.24 1021.08 1020.80 1020.64 1020.40 1020.16 1019.96 1019.80 1019.56 1019.36 1019.12 1018.80 1018.60 1018.44 1018.24 1017.96 1017.72 1017.24 1017.36 1017.24 1016.88 1016.52 1016.12 1015.68 1015.40 1015.04 1014.64 1014.32 1014.04 1013.48 1012.96 1012.72 1012.12 1011.68 1011.56 1011.24 1010.96 1010.92 1010.92 1010.80 1010.64 1010.32 1009.76 1008.28 1007.88
1023.24 1023.24 1023.20 1023.08 1023.00 1023.00 1022.88 1022.88 1022.96 1022.96 1022.80 1022.72 1022.56 1022.40 1022.16 1021.84 1021.64 1021.48 1021.28 1021.04 1020.88 1020.64 1020.36 1020.16 1020.00 1019.80 1019.64 1019.44 1019.20 1019.00 1018.76 1018.52 1018.24 1018.00 1017.64 1017.56 1017.20 1016.84 1016.48 1016.08 1015.76 1015.44 1015.04 1014.52 1014.20 1013.80 1013.52 1013.04 1012.52 1012.16 1011.84 1011.36 1011.12 1010.92 1010.68 1010.56 1010.40 1010.24 1010.24 1009.80 1008.92 1008.64
1023.44 1023.44 1023.36 1023.24 1023.20 1023.20 1023.20 1023.12 1023.08 1023.04 1023.00 1022.92 1022.76 1022.52 1022.28 1022.08 1021.96 1021.80 1021.64 1021.40 1021.20 1020.92 1020.72 1020.48 1020.28 1020.08 1019.92 1019.68 1019.52 1019.28 1019.04 1018.84 1018.64 1018.36 1018.00 1017.72 1017.20 1016.64 1016.28 1016.08 1015.84 1015.48 1015.00 1014.64 1014.16 1013.80 1013.40 1012.84 1012.44 1011.92 1011.60 1011.40 1011.12 1010.68 1010.44 1010.20 1010.12 1009.92 1009.56 1009.40 1009.44 1008.84
1023.76 1023.72 1023.56 1023.52 1023.44 1023.44 1023.32 1023.36 1023.36 1023.32 1023.20 1023.12 1022.92 1022.76 1022.64 1022.44 1022.28 1022.04 1021.96 1021.72 1021.48 1021.28 1021.00 1020.84 1020.60 1020.40 1020.20 1020.00 1019.80 1019.60 1019.40 1019.28 1018.96 1018.60 1018.16 1017.64 1017.20 1016.80 1016.48 1016.20 1015.80 1015.36 1014.92 1014.60 1014.16 1013.68 1013.16 1012.64 1012.12 1011.60 1011.20 1011.04 1010.84 1010.64 1010.48 1010.32 1010.08 1010.08 1010.08 1009.72 1009.28 1008.88
1023.88 1023.96 1023.88 1023.72 1023.60 1023.64 1023.64 1023.64 1023.60 1023.48 1023.32 1023.20 1023.12 1023.08 1022.96 1022.80 1022.64 1022.48 1022.28 1022.04 1021.76 1021.48 1021.28 1021.08 1020.92 1020.72 1020.48 1020.32 1020.08 1020.00 1019.72 1019.48 1019.08 1018.60 1018.08 1017.68 1017.32 1016.96 1016.60 1016.20 1015.76 1015.36 1014.92 1014.40 1013.92 1013.52 1013.12 1012.56 1011.92 1011.32 1010.84 1010.60 1010.44 1010.24 1010.00 1009.88 1009.72 1009.76 1009.76 1009.48 1009.32 1009.04
1024.16 1024.20 1024.08 1023.92 1023.84 1023.88 1023.88 1023.88 1023.80 1023.64 1023.52 1023.28 1023.24 1023.24 1023.16 1023.00 1022.88 1022.80 1022.56 1022.32 1022.08 1021.92 1021.60 1021.36 1021.28 1021.16 1021.00 1020.84 1020.56 1020.24 1019.84 1019.48 1019.04 1018.60 1018.16 1017.76 1017.44 1017.12 1016.76 1016.28 1015.80 1015.36 1014.84 1014.36 1013.92 1013.52 1013.08 1012.48 1011.80 1011.32 1010.88 1010.44 1010.20 1009.88 1009.72 1009.44 1009.32 1009.36 1009.24 1009.12 1009.12 1009.16
1024.40 1024.36 1024.24 1024.12 1024.12 1024.08 1024.08 1024.04 1023.92 1023.84 1023.72 1023.56 1023.44 1023.40 1023.36 1023.28 1023.12 1022.96 1022.76 1022.60 1022.44 1022.24 1022.04 1021.92 1021.72 1021.64 1021.44 1021.12 1020.80 1020.44 1019.96 1019.52 1019.12 1018.68 1018.24 1017.92 1017.56 1017.28 1016.92 1016.40 1015.84 1015.32 1014.80 1014.28 1013.76 1013.32 1012.88 1012.24 1011.68 1011.16 1010.72 1010.36 1010.04 1009.88 1009.60 1009.32 1009.12 1008.96 1008.88 1008.96 1009.04 1009.00
1024.44 1024.52 1024.40 1024.44 1024.36 1024.36 1024.36 1024.20 1024.12 1024.04 1023.92 1023.72 1023.64 1023.64 1023.56 1023.36 1023.32 1023.16 1022.92 1022.80 1022.60 1022.44 1022.28 1022.16 1022.04 1021.88 1021.56 1021.28 1020.92 1020.44 1020.00 1019.64 1019.20 1018.84 1018.48 1018.16 1017.76 1017.36 1016.88 1016.36 1015.80 1015.32 1014.72 1014.12 1013.64 1013.24 1012.72 1012.28 1011.68 1011.16 1010.64 1010.24 1009.96 1009.80 1009.60 1009.32 1009.12 1008.68 1008.48 1008.56 1008.56 1008.64
1024.76 1024.80 1024.72 1024.64 1024.60 1024.60 1024.52 1024.44 1024.36 1024.24 1024.12 1024.00 1023.92 1023.88 1023.76 1023.60 1023.44 1023.32 1023.12 1022.96 1022.84 1022.68 1022.52 1022.40 1022.20 1021.92 1021.76 1021.48 1021.12 1020.60 1020.16 1019.72 1019.44 1019.04 1018.68 1018.28 1017.92 1017.56 1017.08 1016.52 1015.88 1015.28 1014.76 1014.20 1013.68 1013.16 1012.80 1012.28 1011.76 1011.20 1010.72 1010.20 1009.88 1009.72 1009.40 1009.12 1008.88 1008.48 1008.16 1008.16 1008.28 1008.36
1025.00 1024.96 1024.96 1024.92 1024.84 1024.80 1024.72 1024.64 1024.60 1024.48 1024.40 1024.32 1024.28 1024.24 1024.16 1023.92 1023.72 1023.48 1023.24 1023.12 1023.00 1022.88 1022.72 1022.52 1022.36 1022.16 1021.96 1021.68 1021.28 1020.76 1020.36 1019.96 1019.64 1019.32 1018.92 1018.44 1018.12 1017.72 1017.24 1016.76 1016.16 1015.52 1014.92 1014.28 1013.80 1013.40 1012.92 1012.36 1011.84 1011.32 1010.72 1010.20 1009.92 1009.60 1009.12 1008.80 1008.60 1008.24 1007.72 1007.76 1007.96 1008.20
Wind_Speed
6 7 7 6 6 6 7 10 8 10 11 12 11 11 12 11 11 9 10 10 10 7 6 6 7 7 11 9 13 15 15 15 15 15 16 15 15 15 15 15 14 14 14 14 14 14 14 14 14 15 17 17 13 8 8 7 7 5 4 5 6 7
7 8 6 6 5 5 6 7 7 6 6 7 8 9 7 7 8 6 9 7 6 6 6 6 6 8 6 8 9 16 16 16 16 16 17 17 16 16 16 15 15 15 14 13 14 7 7 10 13 13 14 15 9 5 6 6 5 4 5 5 7 9
6 7 6 6 5 5 6 5 7 7 6 8 8 7 7 7 6 6 6 6 6 6 6 6 7 9 9 12 11 15 16 16 16 17 17 17 16 16 17 16 15 15 15 14 8 6 6 5 6 11 11 7 5 6 5 5 5 4 5 5 6 11
5 6 6 6 6 6 6 5 6 6 6 7 7 6 6 7 7 7 6 6 6 6 6 6 9 12 10 7 8 11 15 15 15 15 18 11 13 14 16 14 15 15 9 5 6 6 6 6 6 6 5 5 5 5 5 5 4 5 5 6 7 13
5 6 6 6 6 6 5 6 6 6 6 6 6 6 6 6 7 7 7 6 7 6 7 6 6 7 7 7 7 7 8 8 7 8 13 8 8 8 8 8 7 8 6 6 6 7 7 7 7 6 6 6 6 5 5 5 5 5 6 6 8 14
6 7 6 6 5 5 7 7 6 6 6 6 6 6 6 7 7 7 6 7 7 7 7 6 6 7 7 7 7 7 7 6 7 7 7 7 7 7 7 6 7 7 7 6 6 6 6 6 7 7 6 6 5 5 4 5 5 6 6 6 7 13
7 7 7 6 5 6 6 5 5 6 7 7 6 7 7 7 7 7 7 7 7 7 7 6 7 7 7 6 6 7 7 6 7 7 6 6 7 7 6 6 7 7 7 7 7 7 7 7 6 7 7 7 6 6 5 6 6 6 6 6 8 12
7 7 6 6 6 7 6 6 6 6 7 7 7 7 6 6 6 7 7 6 6 6 6 7 7 7 7 6 7 7 6 7 7 7 6 6 6 6 7 6 6 7 7 7 7 7 7 8 7 6 7 7 6 6 6 6 6 7 6 6 6 9
8 8 6 5 6 5 6 6 7 7 7 7 6 6 6 6 6 6 7 7 6 7 7 6 7 6 6 7 6 7 6 6 6 6 7 7 6 6 7 6 6 6 7 7 7 7 7 7 6 6 6 8 7 6 7 6 7 7 6 6 5 6
7 7 6 6 6 7 6 7 7 7 6 6 6 6 6 6 6 6 7 7 7 6 6 6 6 6 6 7 6 6 6 6 6 6 7 7 7 7 7 7 7 7 8 7 7 8 8 7 7 7 7 7 7 5 6 7 7 7 6 5 6 6
8 8 7 8 7 7 7 7 7 6 6 6 6 6 6 6 6 6 6 7 7 6 6 6 6 6 6 6 6 6 6 6 6 7 7 7 7 7 7 7 8 7 8 7 7 7 7 7 7 7 7 8 8 6 6 6 7 7 6 6 6 6
9 9 9 9 7 8 8 7 7 6 7 6 6 6 6 6 7 6 7 7 6 6 7 6 6 6 6 6 6 6 6 6 7 7 7 7 7 7 7 7 8 8 8 7 7 7 7 7 7 7 8 9 8 7 6 7 7 7 6 6 6 6
10 10 10 9 8 7 7 7 7 6 6 6 6 6 7 7 6 6 7 8 7 7 6 6 7 6 6 6 5 6 7 7 6 6 6 8 8 8 7 7 8 8 7 8 8 9 9 7 8 9 9 9 8 9 6 6 7 7 7 6 7 7
10 10 10 9 8 7 7 6 6 6 6 6 6 6 7 6 6 7 7 8 8 7 7 7 7 7 6 6 6 6 6 7 6 7 6 7 7 7 7 7 7 7 9 8 8 8 8 9 9 9 8 8 8 8 7 6 6 7 7 6 6 5
9 10 9 9 8 7 6 6 6 6 6 6 6 6 6 6 7 7 7 7 8 7 8 8 7 6 6 6 6 6 7 6 6 7 7 7 6 7 8 8 6 7 7 6 7 8 8 7 9 11 9 8 8 8 7 6 7 7 7 7 6 6
9 9 8 7 6 6 6 5 5 6 6 6 7 7 6 6 6 7 7 7 9 8 8 8 8 7 7 6 6 6 6 7 8 7 7 7 7 8 7 8 8 6 6 8 8 8 7 8 8 10 10 9 8 8 8 7 8 7 7 6 7 7
9 8 8 8 8 7 7 6 6 6 6 6 7 7 6 6 7 7 7 8 8 8 8 9 8 8 6 7 7 7 7 8 7 7 7 7 7 7 7 7 9 8 5 6 7 9 8 8 9 9 9 10 10 9 9 8 7 6 7 7 7 7
7 7 7 7 6 6 6 6 6 6 6 7 7 6 7 7 7 7 7 8 8 8 8 8 8 8 7 7 6 6 7 8 7 7 7 7 7 7 8 8 9 10 8 6 7 8 9 9 9 9 9 10 11 9 9 9 7 7 6 7 7 8
7 7 8 8 8 7 6 6 6 7 8 9 8 7 7 7 7 7 7 8 9 8 8 8 8 8 7 7 7 7 7 8 7 7 7 8 8 8 8 9 8 9 9 8 7 7 8 9 10 8 8 10 10 11 9 9 6 5 5 7 8 8
7 7 7 7 6 7 7 7 7 8 8 8 7 7 7 7 7 7 8 8 9 8 8 8 8 8 8 7 7 7 8 8 8 7 7 9 9 8 10 11 12 12 11 11 8 6 8 9 9 9 9 10 10 8 10 9 7 6 5 7 7 6
7 7 7 7 7 6 6 7 5 6 5 5 6 6 7 7 7 6 8 9 9 8 8 9 8 7 8 8 7 7 8 8 8 7 7 8 8 8 9 8 8 8 10 10 9 8 7 9 9 8 9 12 13 8 9 9 6 5 5 5 4 5
7 8 8 6 6 6 4 2 2 4 3 4 7 7 7 8 8 8 8 9 8 8 9 8 8 7 8 9 9 9 9 9 9 8 7 7 8 8 8 8 8 9 9 8 8 9 8 11 5 9 10 10 8 11 6 6 2 5 5 6 6 5
7 7 7 7 7 5 4 5 5 4 5 4 4 5 5 6 7 8 7 8 8 8 9 9 10 9 8 9 9 8 8 8 8 8 7 10 9 10 8 9 10 8 10 8 8 6 8 8 9 10 10 7 8 9 9 5 3 10 10 9 5 5
7 7 7 7 6 6 6 5 6 6 6 4 3 5 6 6 7 9 10 9 9 9 10 8 9 9 7 8 9 9 8 8 8 8 6 8 10 10 10 10 10 10 9 10 9 9 9 7 6 10 8 6 8 7 8 5 10 11 9 6 5 5
6 6 6 6 6 5 6 7 6 5 3 3 1 3 6 9 9 9 9 9 8 8 8 8 8 9 9 8 8 9 9 9 9 9 7 9 9 9 8 8 9 8 10 8 10 8 9 8 7 6 8 7 5 3 5 8 11 11 2 8 7 5
6 6 6 6 6 5 5 5 6 8 10 10 11 11 10 8 8 8 7 6 8 8 8 8 9 9 10 9 9 10 10 10 10 10 8 9 8 10 12 13 11 9 10 10 8 9 9 8 8 8 6 7 7 8 9 9 7 8 7 5 6 4
5 5 5 5 6 5 6 6 8 8 8 8 7 6 6 6 6 7 6 8 7 8 8 8 9 9 9 10 10 10 11 10 9 10 10 10 12 13 13 12 12 11 9 8 10 9 10 10 9 6 6 7 8 8 9 7 6 7 11 2 2 5
5 5 5 5 7 7 6 7 9 9 7 7 6 6 7 7 6 6 8 9 8 7 8 8 8 10 10 11 11 11 11 11 10 11 11 11 11 11 11 12 13 13 9 8 11 9 10 10 9 9 8 9 9 9 8 8 9 9 9 11 11 3
6 6 6 7 7 8 7 7 7 6 7 6 6 6 6 6 7 8 9 9 8 8 8 9 9 10 10 10 11 11 11 12 11 12 10 11 11 12 12 11 11 11 10 11 9 10 9 9 9 9 8 8 8 8 8 7 8 8 7 7 8 7
7 6 6 8 8 8 7 7 7 7 8 7 6 7 7 8 8 8 9 9 8 7 7 8 9 10 10 11 11 12 11 13 13 13 12 11 11 11 11 12 12 11 11 11 10 9 9 9 9 10 9 8 9 7 8 7 5 6 6 6 7 6
6 7 7 7 7 8 8 8 7 7 7 7 8 7 8 9 8 9 9 9 8 7 7 8 8 9 11 12 11 12 12 14 13 13 12 10 9 10 11 10 12 12 11 12 10 10 10 11 9 9 10 7 7 8 7 7 8 7 5 6 7 6
8 7 6 6 8 8 8 8 7 7 8 7 8 7 8 9 9 9 9 8 8 7 8 7 9 9 11 12 11 11 12 13 12 10 10 9 9 11 11 11 11 10 11 11 9 12 10 11 12 9 9 7 6 6 7 8 7 5 6 6 7 8
7 6 6 6 8 8 8 7 7 7 7 7 8 8 8 9 8 8 7 8 8 8 7 9 10 11 11 13 10 10 11 11 9 9 9 9 11 11 11 11 11 12 10 10 9 9 11 11 12 9 9 7 6 6 6 7 7 7 6 7 6 3
5 5 5 7 8 8 8 7 7 7 7 7 8 8 7 7 8 7 7 7 7 7 8 9 9 10 10 10 9 9 10 8 8 9 11 12 12 12 12 11 10 9 10 8 8 12 11 12 10 12 9 8 8 7 7 7 7 6 7 7 4 4
7 6 6 7 7 8 7 7 8 7 7 7 8 7 7 7 7 7 7 7 6 6 7 8 9 8 10 11 12 12 11 9 10 11 12 11 11 13 13 9 8 9 7 9 10 10 10 13 12 13 13 10 9 7 7 7 6 7 6 6 7 4
5 5 6 7 7 7 7 7 7 8 8 8 7 7 7 7 7 7 6 6 7 7 7 7 7 9 10 10 12 12 10 10 11 11 12 12 12 11 11 11 9 9 10 8 11 13 11 12 13 14 12 11 8 8 6 7 6 6 5 6 6 3
5 6 7 7 7 6 6 7 7 8 8 9 9 8 7 8 8 7 7 7 7 6 7 7 8 8 10 10 11 11 9 10 11 12 13 13 12 11 11 9 9 11 11 13 11 12 11 12 12 12 11 13 9 8 9 9 7 5 4 6 6 6
Wind_Direction
356 359 357 357 357 353 351 3 358 355 359 359 0 14 13 18 9 3 9 5 10 3 6 357 348 346 4 1 359 6 7 7 5 1 2 1 0 1 359 357 353 346 336 327 319 314 307 302 297 291 288 287 280 234 253 248 230 239 251 252 255 250
3 0 360 5 8 1 6 12 11 7 5 8 8 27 25 23 15 10 8 10 12 7 8 357 351 0 5 5 359 9 9 8 6 2 2 1 359 357 358 355 350 342 337 336 333 324 311 306 303 300 297 295 291 246 242 238 236 242 249 252 252 251
2 359 6 15 11 12 14 14 18 20 18 23 23 30 32 27 21 14 13 15 14 8 10 7 3 14 15 13 12 13 12 10 9 6 6 1 358 355 354 352 348 345 343 341 336 319 308 304 302 306 306 299 285 277 263 246 241 236 246 250 253 254
1 1 17 9 11 17 13 14 25 23 24 29 28 28 31 28 22 17 15 17 14 9 13 10 8 11 13 8 2 7 9 9 7 5 7 2 357 354 352 348 347 347 344 335 323 318 313 305 304 302 297 291 286 277 264 252 243 244 245 251 252 255
356 14 19 10 16 11 10 30 23 24 27 30 27 24 23 23 17 15 9 16 13 13 11 10 7 6 10 3 5 5 5 4 358 359 2 0 355 348 349 344 340 341 336 327 323 321 317 314 312 313 306 300 296 288 268 251 245 243 245 248 253 261
11 18 19 14 8 11 29 27 20 21 30 31 23 25 24 20 17 12 9 11 16 14 9 7 5 5 5 3 6 4 1 356 359 358 357 355 351 350 346 341 339 334 331 327 319 315 312 310 314 315 315 308 299 291 278 257 245 244 242 242 254 265
19 13 16 11 14 27 30 20 21 27 37 29 20 28 24 19 16 14 15 12 21 8 7 6 6 2 5 359 5 1 358 356 358 359 353 349 348 346 340 339 337 334 328 329 328 323 319 319 313 313 314 312 308 295 288 263 250 245 244 247 255 264
14 19 9 9 24 29 22 28 27 27 34 33 30 29 21 18 14 16 16 12 17 16 11 7 3 3 357 360 3 356 355 0 359 357 349 349 346 344 341 339 334 333 333 332 326 324 320 321 322 319 314 314 312 305 291 272 254 246 245 247 250 257
15 18 14 9 32 24 23 31 29 29 28 29 28 23 18 18 19 9 11 13 12 16 11 8 2 357 351 3 357 359 357 358 356 355 351 351 350 342 342 337 335 332 334 331 328 326 324 321 318 318 319 313 318 310 300 283 261 255 248 245 246 252
15 22 11 27 26 27 20 29 25 25 20 28 24 16 22 23 14 12 7 5 10 15 14 5 358 353 2 355 355 355 359 354 353 350 353 351 347 345 339 337 336 335 335 332 330 329 327 318 320 319 321 318 315 310 302 281 266 261 254 248 250 248
19 24 24 31 27 27 26 29 21 19 23 24 17 23 24 17 17 13 5 3 9 9 9 7 4 356 357 353 352 356 357 348 355 354 351 349 346 347 343 340 339 335 336 331 330 326 326 321 322 322 323 319 315 313 306 291 265 262 257 253 251 251
23 27 29 30 27 28 27 26 21 22 23 18 22 27 23 17 14 6 4 9 7 7 8 5 5 358 3 355 354 356 354 1 356 351 352 351 348 347 345 340 336 340 335 332 331 331 330 330 325 323 321 319 317 315 309 300 278 261 258 254 249 245
25 29 30 27 27 28 24 27 25 18 16 18 22 24 24 14 7 5 7 8 6 4 12 4 357 2 357 359 356 358 1 360 353 350 351 350 349 347 346 346 342 341 339 344 339 340 338 336 331 327 324 319 318 313 308 299 289 266 256 253 246 244
27 27 29 27 26 27 19 22 27 19 16 16 21 25 21 13 10 8 4 9 5 3 8 2 3 357 1 0 359 2 359 357 347 350 350 354 352 348 346 344 343 338 344 344 340 333 338 337 333 325 324 321 315 310 308 300 290 277 259 253 247 247
24 26 25 23 21 19 21 19 17 23 17 17 20 25 16 13 13 6 6 5 5 357 5 2 3 2 356 5 1 357 357 349 346 352 355 352 351 348 350 343 342 340 332 338 334 333 336 330 329 326 321 322 316 312 309 302 298 286 269 257 247 241
25 24 22 20 16 15 15 18 15 22 20 18 23 21 14 11 10 8 6 4 3 357 5 359 1 3 0 2 4 358 352 348 351 351 351 349 352 354 346 342 339 341 335 333 333 330 331 329 327 323 318 317 316 313 308 305 301 292 272 260 250 242
24 19 14 13 15 13 11 15 16 14 22 20 24 16 8 7 15 9 2 6 359 359 2 358 359 1 2 360 4 1 354 353 351 352 348 347 351 347 347 344 336 339 339 324 326 324 326 327 325 319 314 312 314 316 307 302 294 277 273 260 257 251
24 20 18 11 11 8 3 9 11 11 19 24 17 14 12 15 12 2 5 2 359 1 359 356 359 359 2 3 5 3 351 354 348 351 349 347 348 344 346 348 337 332 333 333 326 330 325 324 321 317 310 311 313 314 305 299 288 283 259 254 257 254
23 16 16 11 6 10 6 10 11 13 20 18 11 11 13 12 4 4 7 359 4 1 357 356 358 0 5 5 3 1 2 353 351 351 353 350 349 346 346 342 335 327 326 326 325 320 324 320 319 312 306 307 310 307 300 294 284 266 260 257 259 256
24 16 14 15 11 11 10 8 9 5 14 11 359 5 7 10 2 6 360 4 4 2 355 355 1 357 12 10 10 4 359 358 356 348 355 353 347 347 350 347 342 339 335 331 333 335 329 333 318 317 314 309 301 297 301 297 293 285 268 271 262 262
15 19 23 17 14 22 9 353 356 9 350 355 3 5 7 1 1 358 4 6 5 1 355 358 0 4 15 13 11 3 4 358 351 346 351 350 337 340 351 346 336 332 338 335 328 337 334 335 315 316 328 325 318 313 303 292 311 323 314 296 275 260
20 22 21 21 18 21 15 2 319 343 328 329 12 6 358 3 356 358 7 6 4 359 358 0 2 7 20 17 9 5 4 357 351 345 345 339 342 346 345 347 346 338 346 335 320 326 340 342 338 337 328 320 311 317 302 300 14 356 332 293 271 263
29 28 17 14 26 13 357 8 21 346 0 328 2 7 358 357 358 352 6 5 3 1 2 8 9 9 22 15 8 3 358 349 350 343 341 348 346 348 350 350 352 346 339 334 319 326 346 352 323 327 312 295 325 335 329 345 328 331 330 309 294 284
30 30 21 11 21 8 13 14 12 8 356 9 346 354 358 0 0 1 6 1 5 4 5 10 11 10 10 18 10 2 352 352 348 347 342 348 346 346 346 349 345 344 343 333 338 330 338 334 328 333 334 328 305 305 310 329 335 318 312 319 315 291
39 30 21 15 14 11 15 11 2 355 352 337 315 1 16 8 3 359 0 359 349 360 4 10 11 14 9 10 7 2 357 352 351 350 342 354 348 341 332 331 336 338 345 336 330 327 324 331 327 320 304 317 312 287 316 310 331 307 345 346 314 300
38 30 23 17 8 20 18 20 9 16 18 18 15 11 5 352 344 350 345 335 356 1 7 10 13 10 9 4 5 2 0 356 352 349 342 355 342 338 343 345 344 339 337 337 331 322 317 322 319 307 298 303 293 292 307 314 319 305 333 293 307 330
42 33 19 22 17 15 24 21 27 28 32 24 11 351 343 340 344 339 347 0 353 359 6 10 10 10 7 2 5 3 360 355 350 348 345 357 349 348 343 343 340 339 332 328 334 322 320 318 316 305 301 285 285 290 296 307 304 313 310 323 349 334
32 30 21 20 28 20 30 25 29 24 21 19 7 348 342 337 346 355 358 2 358 1 2 8 7 10 8 4 2 360 359 354 352 348 353 355 348 343 341 340 343 339 326 328 327 316 312 313 315 312 308 301 291 285 276 277 272 278 288 300 309 308
33 23 20 26 34 26 27 34 36 28 20 7 3 356 341 354 0 359 4 358 2 356 2 3 8 7 6 4 2 357 358 356 353 352 356 348 342 337 328 324 333 335 328 325 321 318 308 305 307 301 306 298 290 286 282 264 272 270 271 286 294 311
26 23 26 31 33 31 28 30 31 23 23 7 3 358 3 4 3 359 1 356 356 357 356 6 3 6 3 4 359 359 0 358 357 352 352 339 328 322 332 338 333 325 321 321 318 311 306 300 297 294 290 282 289 291 287 283 265 278 283 260 277 306
24 24 27 35 39 31 30 29 26 17 17 13 6 9 8 4 1 1 1 354 357 348 1 5 3 2 6 360 359 1 2 0 359 356 341 327 318 330 340 335 330 325 323 322 313 308 309 308 306 303 304 293 279 279 284 293 289 287 282 289 302 302
27 19 24 34 42 35 33 25 21 17 15 12 16 13 10 4 2 359 357 354 351 357 1 3 7 6 3 359 359 357 357 358 351 333 329 323 314 337 340 336 333 331 328 316 312 321 311 309 314 318 332 330 297 267 261 259 266 253 265 273 275 284
27 17 28 36 42 38 33 25 20 17 12 13 17 15 10 6 1 357 353 355 358 1 356 9 10 6 360 358 351 352 352 350 331 324 319 325 338 339 346 338 336 333 321 315 318 315 316 314 320 321 330 330 319 306 284 262 255 259 259 262 274 329
35 24 33 40 39 38 30 24 21 18 12 14 17 12 9 6 355 355 357 354 359 2 10 12 8 7 354 349 350 346 339 328 322 322 338 340 341 345 343 337 333 326 317 310 312 327 323 325 328 329 324 333 338 331 329 328 305 267 251 255 253 184
43 25 40 42 41 38 29 25 20 15 15 17 17 10 5 4 359 354 353 357 360 3 15 12 8 359 355 352 350 350 343 337 339 338 344 342 346 345 338 323 322 316 314 328 330 330 332 332 332 334 333 336 337 336 335 322 309 292 257 242 242 185
55 39 41 45 43 40 30 27 18 17 13 17 12 10 2 357 355 354 353 4 4 10 14 10 3 4 358 351 346 345 344 347 347 345 344 342 343 340 333 327 324 339 336 334 333 339 338 333 335 335 332 331 340 343 333 324 311 292 252 242 234 192
48 46 44 50 47 35 33 27 15 16 17 14 11 8 359 354 353 350 6 9 11 14 14 14 9 4 355 348 345 342 342 348 351 349 345 344 343 338 334 330 334 334 339 341 336 341 338 336 336 335 334 337 339 338 339 338 317 291 252 203 218 168